• Em Portugal
  • Lista de países
  • Para 7 dias
  • Temperatura da água
  • Mapas de satélite
  • Mapa do tempo
  • Widgets de tempo
  • user-avatar
    Iniciar Sessão

    Previsão horária em Strukovo

    Hoje, 21 Setembro, Sexta-feira

    Tempo Temperatura Precipitação Vento Pressão Humidade
    00:00 +16°C° 0 mm 1 m/s 748 mmHg 90%
    01:00 +16°C° 0 mm 1 m/s 749 mmHg 91%
    02:00 +15°C° 0 mm 1 m/s 749 mmHg 92%
    03:00 +15°C° 0 mm 1 m/s 749 mmHg 92%
    04:00 +15°C° 0 mm 1 m/s 749 mmHg 92%
    05:00 +14°C° 0 mm 1 m/s 749 mmHg 93%
    06:00 +16°C° 0 mm 1 m/s 749 mmHg 87%
    07:00 +18°C° 0 mm 1 m/s 750 mmHg 82%
    08:00 +20°C° 0 mm 1 m/s 750 mmHg 76%
    09:00 +21°C° 0 mm 1 m/s 750 mmHg 69%
    10:00 +23°C° 0 mm 1 m/s 750 mmHg 62%
    11:00 +24°C° 0 mm 2 m/s 750 mmHg 55%
    12:00 +25°C° 0 mm 2 m/s 750 mmHg 53%
    13:00 +26°C° 0 mm 2 m/s 750 mmHg 51%
    14:00 +27°C° 0 mm 1 m/s 750 mmHg 48%
    15:00 +25°C° 0 mm 1 m/s 750 mmHg 54%
    16:00 +24°C° 0 mm 1 m/s 749 mmHg 59%
    17:00 +23°C° 0 mm 1 m/s 749 mmHg 64%
    18:00 +22°C° 0 mm 1 m/s 749 mmHg 67%
    19:00 +21°C° 0 mm 1 m/s 749 mmHg 70%
    20:00 +19°C° 0 mm 2 m/s 749 mmHg 74%
    21:00 +18°C° 0 mm 2 m/s 749 mmHg 76%
    22:00 +18°C° 0 mm 2 m/s 749 mmHg 78%
    23:00 +18°C° 0 mm 2 m/s 749 mmHg 80%

    Amanhã, 22 Setembro, Sábado

    Tempo Temperatura Precipitação Vento Pressão Humidade
    00:00 +17°C° 0 mm 2 m/s 749 mmHg 81%
    01:00 +17°C° 0 mm 2 m/s 749 mmHg 82%
    02:00 +17°C° 0 mm 2 m/s 749 mmHg 83%
    03:00 +17°C° 0 mm 2 m/s 749 mmHg 82%
    04:00 +16°C° 0 mm 2 m/s 749 mmHg 82%
    05:00 +16°C° 0 mm 3 m/s 749 mmHg 82%
    06:00 +18°C° 0 mm 3 m/s 748 mmHg 77%
    07:00 +19°C° 0 mm 3 m/s 748 mmHg 72%
    08:00 +20°C° 0 mm 4 m/s 748 mmHg 67%
    09:00 +22°C° 0 mm 4 m/s 748 mmHg 62%
    10:00 +23°C° 0 mm 5 m/s 748 mmHg 58%
    11:00 +26°C° 0 mm 5 m/s 748 mmHg 53%
    12:00 +26°C° 0 mm 5 m/s 747 mmHg 52%
    13:00 +27°C° 0 mm 6 m/s 747 mmHg 50%
    14:00 +27°C° 0 mm 6 m/s 746 mmHg 49%
    15:00 +26°C° 0 mm 5 m/s 746 mmHg 54%
    16:00 +25°C° 0 mm 4 m/s 745 mmHg 58%
    17:00 +24°C° 0 mm 3 m/s 745 mmHg 63%
    18:00 +22°C° 0 mm 4 m/s 744 mmHg 62%
    19:00 +22°C° 0 mm 4 m/s 744 mmHg 61%
    20:00 +21°C° 0 mm 5 m/s 744 mmHg 60%
    21:00 +21°C° 0 mm 5 m/s 744 mmHg 60%
    22:00 +20°C° 0 mm 5 m/s 743 mmHg 59%
    23:00 +20°C° 0 mm 5 m/s 743 mmHg 58%

    Depois de amanhã, 23 Setembro, Domingo

    Tempo Temperatura Precipitação Vento Pressão Humidade
    00:00 +19°C° 0 mm 5 m/s 743 mmHg 62%
    01:00 +18°C° 0 mm 4 m/s 743 mmHg 65%
    02:00 +17°C° 0 mm 4 m/s 743 mmHg 69%
    03:00 +15°C° 0.3 mm 4 m/s 742 mmHg 74%
    04:00 +13°C° 0.3 mm 5 m/s 742 mmHg 80%
    05:00 +12°C° 0.3 mm 5 m/s 742 mmHg 86%
    06:00 +10°C° 0.9 mm 5 m/s 742 mmHg 87%
    07:00 +9°C° 0.9 mm 5 m/s 743 mmHg 88%
    08:00 +8°C° 0.9 mm 5 m/s 743 mmHg 89%
    09:00 +9°C° 0.5 mm 5 m/s 743 mmHg 87%
    10:00 +10°C° 0.5 mm 4 m/s 744 mmHg 84%
    11:00 +11°C° 0.5 mm 4 m/s 744 mmHg 82%
    12:00 +11°C° 0 mm 4 m/s 744 mmHg 81%
    13:00 +12°C° 0 mm 4 m/s 744 mmHg 80%
    14:00 +12°C° 0 mm 4 m/s 744 mmHg 78%
    15:00 +12°C° 0 mm 3 m/s 744 mmHg 78%
    16:00 +12°C° 0 mm 3 m/s 744 mmHg 78%
    17:00 +12°C° 0 mm 3 m/s 744 mmHg 78%
    18:00 +11°C° 0 mm 3 m/s 744 mmHg 81%
    19:00 +10°C° 0 mm 3 m/s 744 mmHg 85%
    20:00 +9°C° 0 mm 3 m/s 744 mmHg 88%
    21:00 +9°C° 0 mm 3 m/s 744 mmHg 89%
    22:00 +8°C° 0 mm 3 m/s 744 mmHg 90%
    23:00 +8°C° 0 mm 3 m/s 744 mmHg 91%

    24 Setembro, Segunda-feira

    Tempo Temperatura Precipitação Vento Pressão Humidade
    00:00 +8°C° 0 mm 3 m/s 744 mmHg 91%
    01:00 +7°C° 0 mm 2 m/s 744 mmHg 91%
    02:00 +7°C° 0 mm 2 m/s 744 mmHg 92%
    03:00 +7°C° 0 mm 2 m/s 744 mmHg 92%
    04:00 +7°C° 0 mm 2 m/s 744 mmHg 92%
    05:00 +6°C° 0 mm 2 m/s 744 mmHg 92%
    06:00 +8°C° 0 mm 3 m/s 743 mmHg 87%
    07:00 +9°C° 0 mm 3 m/s 743 mmHg 81%
    08:00 +11°C° 0 mm 3 m/s 743 mmHg 75%
    09:00 +11°C° 0.1 mm 4 m/s 743 mmHg 73%
    10:00 +12°C° 0.1 mm 5 m/s 742 mmHg 70%
    11:00 +13°C° 0.1 mm 6 m/s 742 mmHg 68%
    12:00 +11°C° 1 mm 6 m/s 741 mmHg 73%
    13:00 +10°C° 1 mm 6 m/s 739 mmHg 78%
    14:00 +10°C° 1 mm 6 m/s 738 mmHg 83%
    15:00 +9°C° 2.6 mm 8 m/s 737 mmHg 85%
    16:00 +8°C° 2.6 mm 9 m/s 735 mmHg 86%
    17:00 +8°C° 2.6 mm 10 m/s 733 mmHg 88%
    18:00 +9°C° 1.2 mm 10 m/s 732 mmHg 87%
    19:00 +9°C° 1.2 mm 10 m/s 730 mmHg 86%
    20:00 +11°C° 1.2 mm 11 m/s 729 mmHg 85%
    21:00 +9°C° 0.1 mm 10 m/s 728 mmHg 84%
    22:00 +8°C° 0.1 mm 10 m/s 727 mmHg 83%
    23:00 +7°C° 0.1 mm 10 m/s 727 mmHg 82%

    25 Setembro, Terça-feira

    Tempo Temperatura Precipitação Vento Pressão Humidade
    00:00 +7°C° 0.2 mm 11 m/s 727 mmHg 82%
    01:00 +7°C° 0.2 mm 11 m/s 727 mmHg 82%
    02:00 +7°C° 0.2 mm 11 m/s 727 mmHg 82%
    03:00 +6°C° 0.1 mm 11 m/s 727 mmHg 82%
    04:00 +6°C° 0.1 mm 11 m/s 727 mmHg 83%
    05:00 +6°C° 0.1 mm 10 m/s 727 mmHg 83%
    06:00 +6°C° 0.4 mm 10 m/s 727 mmHg 84%
    07:00 +6°C° 0.4 mm 10 m/s 728 mmHg 85%
    08:00 +6°C° 0.4 mm 9 m/s 728 mmHg 86%
    09:00 +6°C° 1 mm 9 m/s 730 mmHg 86%
    10:00 +6°C° 1 mm 10 m/s 731 mmHg 85%
    11:00 +6°C° 1 mm 10 m/s 732 mmHg 85%
    12:00 +6°C° 0.7 mm 10 m/s 733 mmHg 84%
    13:00 +5°C° 0.7 mm 9 m/s 735 mmHg 83%
    14:00 +5°C° 0.7 mm 9 m/s 736 mmHg 81%
    15:00 +5°C° 0.2 mm 9 m/s 737 mmHg 80%
    16:00 +5°C° 0.2 mm 8 m/s 738 mmHg 78%
    17:00 +5°C° 0.2 mm 7 m/s 739 mmHg 76%
    18:00 +5°C° 0 mm 7 m/s 740 mmHg 76%
    19:00 +4°C° 0 mm 6 m/s 740 mmHg 76%
    20:00 +4°C° 0 mm 6 m/s 741 mmHg 75%
    21:00 +3°C° 0 mm 6 m/s 742 mmHg 76%
    22:00 +3°C° 0 mm 5 m/s 742 mmHg 76%
    23:00 +2°C° 0 mm 5 m/s 742 mmHg 76%

    26 Setembro, Quarta-feira

    Tempo Temperatura Precipitação Vento Pressão Humidade
    00:00 +2°C° 0 mm 5 m/s 743 mmHg 76%
    01:00 +2°C° 0 mm 5 m/s 743 mmHg 77%
    02:00 +1°C° 0 mm 5 m/s 744 mmHg 77%
    03:00 +1°C° 0 mm 5 m/s 744 mmHg 80%
    04:00 +1°C° 0 mm 4 m/s 744 mmHg 83%
    05:00 0°C° 0 mm 4 m/s 745 mmHg 86%
    06:00 +1°C° 0.1 mm 4 m/s 745 mmHg 84%
    07:00 +3°C° 0.1 mm 4 m/s 745 mmHg 83%
    08:00 +4°C° 0.1 mm 4 m/s 746 mmHg 81%
    09:00 +5°C° 0.3 mm 4 m/s 746 mmHg 81%
    10:00 +5°C° 0.3 mm 4 m/s 746 mmHg 81%
    11:00 +6°C° 0.3 mm 4 m/s 747 mmHg 81%
    12:00 +6°C° 0.2 mm 4 m/s 747 mmHg 80%
    13:00 +6°C° 0.2 mm 4 m/s 747 mmHg 80%
    14:00 +7°C° 0.2 mm 4 m/s 747 mmHg 79%
    15:00 +6°C° 0.1 mm 4 m/s 748 mmHg 82%
    16:00 +7°C° 0.1 mm 3 m/s 748 mmHg 84%
    17:00 +5°C° 0.1 mm 3 m/s 749 mmHg 86%
    18:00 +5°C° 0 mm 3 m/s 749 mmHg 87%
    19:00 +4°C° 0 mm 3 m/s 750 mmHg 88%
    20:00 +4°C° 0 mm 2 m/s 751 mmHg 89%
    21:00 +3°C° 0 mm 2 m/s 751 mmHg 87%
    22:00 +3°C° 0 mm 2 m/s 751 mmHg 85%
    23:00 +2°C° 0 mm 2 m/s 752 mmHg 83%
    Mostrar mais